Regional Weather Roundup
Issued by NWS

Home | Current Version | Previous Version | Graphics & Text | Print | Product List | Glossary On
Versions: 1 2 3 4 5 6 7 8 9 10 11 12 13 14 15 16 17 18 19 20 21 22 23 24 25 26 27 28 29 30 31 32 33 34 35 36 37 38 39 40 41 42 43 44 45 46 47 48 49 50
000
ASUS43 KFSD 060610
RWRSD

WEATHER ROUNDUP FOR SOUTH DAKOTA
NATIONAL WEATHER SERVICE SIOUX FALLS SD
100 AM CDT MON JUL 06 2015

NOTE: "FAIR" INDICATES FEW OR NO CLOUDS BELOW 12,000 FEET WITH NO
SIGNIFICANT WEATHER AND/OR OBSTRUCTIONS TO VISIBILITY.


SDZ001>005-009-010-012>017-060700-
NORTHWEST AND NORTH CENTRAL SOUTH DAKOTA

CITY           SKY/WX    TMP DP  RH WIND       PRES   REMARKS
BUFFALO          N/A     61  56  83 NW10      30.04R
FAITH            N/A     62  58  86 N10       30.01S
MOBRIDGE       CLOUDY    68  64  87 N8        29.92S FOG
$$

SDZ012>016-024>037-041>051-057-063-072>074-060700-
SOUTHWEST AND SOUTH CENTRAL SOUTH DAKOTA

CITY           SKY/WX    TMP DP  RH WIND       PRES   REMARKS
RAPID CTY ARPT CLOUDY    61  58  90 NW14      30.08R FOG
PIERRE         CLOUDY    66  63  90 N10       29.93R FOG
CUSTER         CLOUDY    54  52  93 NE13      30.15R FOG
ELLSWORTH AFB  CLOUDY    60  59  96 NW16      30.08
PHILIP         CLOUDY    64  62  93 N6        30.01R FOG
PINE RIDGE     CLOUDY    62  59  90 N10       30.03S
SPEARFISH      CLOUDY    57  55  94 W6        30.15S FOG
WINNER         CLOUDY    68  64  87 N9        29.94R
$$

SDZ004>011-016>023-039-040-060700-
NORTHEAST SOUTH DAKOTA

CITY           SKY/WX    TMP DP  RH WIND       PRES   REMARKS
ABERDEEN       CLOUDY    70  65  84 N15       29.86F
WATERTOWN      CLOUDY    69  65  86 NE15G23   29.82F
BROOKINGS      CLOUDY    68  64  88 N7        29.85R
SISSETON         N/A     69  66  90 N13       29.85F
$$

SDZ017-020-022-023-036>040-048>070-060700-
SOUTHEAST SOUTH DAKOTA

CITY           SKY/WX    TMP DP  RH WIND       PRES   REMARKS
SIOUX FALLS    CLOUDY    74  69  85 NE26G43   29.75R
HURON          RAIN      70  67  90 N12       29.84R
CHAMBERLAIN    LGT RAIN  67  66  96 N14G20    29.91R
MITCHELL       LGT RAIN  71  69  93 NW18G26   29.85R
YANKTON        CLOUDY    72  66  83 NW25G47   29.80R THUNDER
$$

ABBREVIATIONS USED IN REMARKS
   TC - TEMPERATURE IN CELSIUS
  WCI - WIND CHILL INDEX
   HX - HEAT INDEX
  VSB - VISIBILITY



USA.gov is the U.S. government's official web portal to all federal, state and local government web resources and services.